• Processing (Info)

  • MPEC 2014-X04 : 2014 WQ365

    The following Minor Planet Electronic Circular may be linked-to from your own Web pages, but must not otherwise be redistributed electronically.

    A form allowing access to any MPEC is at the bottom of this page.


    Read MPEC 2014-X03 Read MPEC 2014-X05


    M.P.E.C. 2014-X04                                Issued 2014 Dec. 1, 22:41 UT
    
         The Minor Planet Electronic Circulars contain information on unusual
             minor planets and routine data on comets.  They are published
       on behalf of Commission 20 of the International Astronomical Union by the
              Minor Planet Center, Smithsonian Astrophysical Observatory,
                              Cambridge, MA 02138, U.S.A.
    
                 Prepared using the Tamkin Foundation Computer Network
    
                                  MPC@CFA.HARVARD.EDU
                URL https://www.minorplanetcenter.net/    ISSN 1523-6714
    
                                      2014 WQ365
    
    Observations:
         K14Wa5Q* C2014 11 24.31518 04 08 08.06 +31 55 08.8          20.3 VqEX004G96
         K14Wa5Q  C2014 11 24.32130 04 08 07.81 +31 55 10.0          19.6 VqEX004G96
         K14Wa5Q  C2014 11 24.32742 04 08 07.49 +31 55 12.3          19.4 VqEX004G96
         K14Wa5Q  C2014 11 24.33355 04 08 07.29 +31 55 12.9          19.6 VqEX004G96
         K14Wa5Q  C2014 11 24.38623 04 08 04.86 +31 55 23.4          20.1 VqEX004G96
         K14Wa5Q  C2014 11 24.38793 04 08 04.75 +31 55 24.3          20.3 VqEX004G96
         K14Wa5Q  C2014 11 25.24371 04 07 26.93 +31 58 22.1          20.1 VqEX004G96
         K14Wa5Q  C2014 11 25.24816 04 07 26.66 +31 58 23.1          20.2 VqEX004G96
         K14Wa5Q  C2014 11 25.25260 04 07 26.57 +31 58 23.7          20.0 VqEX004G96
         K14Wa5Q  C2014 11 25.25704 04 07 26.30 +31 58 25.0          20.2 VqEX004G96
         K14Wa5Q  C2014 11 26.20093 04 06 44.40 +32 01 36.4          20.2 VqEX004G96
         K14Wa5Q  C2014 11 26.20891 04 06 44.02 +32 01 37.9          20.4 VqEX004G96
         K14Wa5Q  C2014 11 26.21690 04 06 43.65 +32 01 39.4          20.1 VqEX004G96
         K14Wa5Q  C2014 11 26.22487 04 06 43.27 +32 01 41.1          20.1 VqEX004G96
         K14Wa5Q  C2014 12 01.38777 04 02 53.70 +32 17 45.9          20.0 VqEX004G96
         K14Wa5Q  C2014 12 01.38909 04 02 53.63 +32 17 46.5          20.3 VqEX004G96
         K14Wa5Q  C2014 12 01.39279 04 02 53.47 +32 17 47.0          20.3 VqEX004G96
         K14Wa5Q  C2014 12 01.39411 04 02 53.43 +32 17 47.1          20.2 VqEX004G96
         K14Wa5Q  C2014 12 01.39543 04 02 53.36 +32 17 47.4          20.3 VqEX004G96
    
    Observer details:
    G96 Mt. Lemmon Survey.  Observers E. J. Christensen, R. A. Kowalski,
        R. E. Hill.  Measurers E. J. Christensen, A. R. Gibbs, A. D. Grauer,
        R. E. Hill, J. A. Johnson, R. A. Kowalski, R. G. Matheny, S. M. Larson,
        F. C. Shelly.  1.5-m reflector + CCD.
    
    Orbital elements:
    2014 WQ365
    Epoch 2014 Dec. 9.0 TT = JDT 2457000.5                  MPC
    M   1.42331              (2000.0)            P               Q
    n   0.03451831     Peri.   16.32777     +0.48592435     -0.82827961
    a   9.3419254      Node    45.63856     +0.75190168     +0.23344615
    e   0.5961054      Incl.   22.96782     +0.44555739     +0.50936802
    P  28.55           H   14.7           G   0.15           U   6
    Residuals in seconds of arc
    141124 G96  0.2-  0.1-    141125 G96  0.7-  0.2+    141201 G96  0.1+  0.1-
    141124 G96  0.2+  0.2-    141125 G96  0.7+  0.1-    141201 G96  0.1-  0.3+
    141124 G96  0.3-  0.8+    141125 G96  0.1-  0.2+    141201 G96  0.0   0.2+
    141124 G96  0.7+  0.1+    141126 G96  0.4+  0.3+    141201 G96  0.3+  0.0
    141124 G96  0.3+  0.3-    141126 G96  0.2+  0.1+    141201 G96  0.1+  0.1+
    141124 G96  0.1-  0.2+    141126 G96  0.1+  0.0
    141125 G96  0.1+  0.1+    141126 G96  0.1-  0.0
    
    Ephemeris:
    2014 WQ365               a,e,i = 9.34, 0.60, 23                  q = 3.7732
    Date    TT    R. A. (2000) Decl.     Delta      r     Elong.  Phase     V
    2014 11 01    04 23 15.9 +30 11 27   2.8930  3.7732   148.2     8.0    20.5
    ...
    2014 11 16    04 14 07.9 +31 23 00   2.8187  3.7752   162.9     4.4    20.2
    ...
    2014 11 24    04 08 22.1 +31 54 02   2.8053  3.7774   168.3     3.0    20.1
    ...
    2014 11 30    04 03 55.3 +32 13 40   2.8078  3.7796   168.5     3.0    20.1
    2014 12 01    04 03 11.0 +32 16 38   2.8093  3.7800   168.2     3.1    20.1
    2014 12 02    04 02 26.9 +32 19 32   2.8111  3.7804   167.7     3.2    20.1
    ...
    2014 12 08    03 58 08.5 +32 35 06   2.8280  3.7832   163.6     4.2    20.2
    ...
    2014 12 16    03 52 52.1 +32 51 38   2.8668  3.7875   156.1     6.0    20.4
    ...
    2014 12 31    03 45 26.5 +33 12 56   2.9854  3.7978   140.7     9.4    20.6
    
    A. U. Tomatic                (C) Copyright 2014 MPC           M.P.E.C. 2014-X04
    

    Read MPEC 2014-X03 Read MPEC 2014-X05


    MPEC number:

    Enter an MPEC number in one of the following forms:

    • 1997-B01 (the full form)
    • J97B01 (the packed version of the full form)
    • B01 (the abbreviated form)